Simultaneous Nadir Overpasses (SNOs) Predictions

Prediction of SNOs between METOP-B and NOAA-19 Satellite Orbit:

Table of predicted SNOs for the next 14.0 days since TLE Epoch: 11/9/2024
Index Date (METOP-B) Time (METOP-B) Lat,Lon (METOP-B) SZA (METOP-B ) Date (NOAA-19) Time (NOAA-19) Lat,Lon (NOAA-19) SZA (NOAA-19 ) Distance(km) Time Diff (sec)
1 11/09/2024 13:49:43 -79.06,-119.46 72.85 11/09/2024 13:48:32 -79.06,-119.44 72.90 0.40 71
2 11/09/2024 14:40:22 78.99, 48.38 107.26 11/09/2024 14:39:31 78.99, 48.33 107.21 1.05 51
3 11/09/2024 15:31:00 -78.91,-143.77 72.64 11/09/2024 15:30:25 -78.92,-143.85 72.68 2.15 35
4 11/09/2024 16:21:37 78.79, 24.30 107.52 11/09/2024 16:21:21 78.78, 24.41 107.53 2.91 16
5 11/09/2024 17:12:15 -78.71,-167.88 72.38 11/09/2024 17:12:15 -78.70,-167.80 72.37 1.87 0
6 11/09/2024 18:02:54 78.63, -0.06 107.73 11/09/2024 18:03:14 78.63, -0.05 107.75 0.33 20
7 11/09/2024 18:53:32 -78.55, 167.75 72.17 11/09/2024 18:54:08 -78.55, 167.72 72.15 0.73 36
8 11/09/2024 19:44:10 78.43, -24.22 107.99 11/09/2024 19:45:06 78.44, -24.30 108.02 2.33 56
9 11/09/2024 20:34:47 -78.30, 143.79 71.87 11/09/2024 20:35:59 -78.32, 143.68 71.83 3.29 72
10 11/21/2024 12:59:49 -79.43,-109.72 70.51 11/21/2024 12:58:43 -79.44,-109.78 70.57 1.46 66
11 11/21/2024 13:50:27 79.34, 58.32 109.63 11/21/2024 13:49:43 79.33, 58.34 109.60 0.47 44
12 11/21/2024 14:41:06 -79.29,-133.98 70.31 11/21/2024 14:40:35 -79.27,-133.87 70.31 2.54 31
13 11/21/2024 15:31:45 79.23, 33.80 109.78 11/21/2024 15:31:37 79.23, 33.71 109.76 2.13 8
14 11/21/2024 16:22:23 -79.14,-158.26 70.11 11/21/2024 16:22:28 -79.14,-158.26 70.10 0.19 5
15 11/21/2024 17:13:01 79.04, 9.75 110.03 11/21/2024 17:13:28 79.03, 9.83 110.06 1.84 27
16 11/21/2024 18:03:41 -79.02, 177.18 69.95 11/21/2024 18:04:22 -79.04, 177.07 69.94 2.66 41



Historial Predications of SNOs between METOP-B and NOAA-19
